Regional Weather Roundup
Issued by NWS Green Bay, WI

Home | Current Version | Previous Version | Text Only | Print | Product List | Glossary On
Versions: 1 2 3 4 5 6 7 8 9 10 11 12 13 14 15 16 17 18 19 20 21 22 23 24 25 26 27 28 29 30 31 32 33 34 35 36 37 38 39 40 41 42 43 44 45 46 47 48 49 50
000
ASUS43 KGRB 250310
RWRGRB

NORTH-CENTRAL AND NORTHEAST WISCONSIN REGIONAL WEATHER ROUNDUP
NATIONAL WEATHER SERVICE GREEN BAY WI
1000 PM CDT FRI APR 24 2015

WIZ005-009-010>012-018-019-250400-
NORTH CENTRAL WISCONSIN

CITY           SKY/WX    TMP DP  RH WIND       PRES   REMARKS
IRONWOOD       CLOUDY    39  32  75 E6        29.92F
MANITOWISH WTR CLOUDY    41  30  63 E5        29.93S
ARBOR VITAE    CLOUDY    43  30  61 SE8       29.94R
EAGLE RIVER    CLOUDY    41  28  60 SE6       29.95R
LAND O LAKES   CLOUDY    42  28  56 CALM      29.96R
RHINELANDER    CLOUDY    41  28  60 SE9       29.96R
PHILLIPS       CLOUDY    43  27  52 SE5       29.91R
ANTIGO         CLOUDY    39  25  57 E9        29.97S
TOMAHAWK       CLOUDY    41  30  64 SE3       29.95R
MERRILL        CLOUDY    40  35  80 SE8       29.95S
$$

WIZ013-073-250400-
NORTHEAST WISCONSIN

CITY           SKY/WX    TMP DP  RH WIND       PRES   REMARKS
IRON MOUNTAIN  CLOUDY    39  26  59 E5        29.98S
MARINETTE      CLOUDY    37  25  60 NE5       30.01R
OCONTO         CLOUDY    39  22  50 CALM      30.01S
$$

WIZ017-030-035>037-045-250400-
CENTRAL WISCONSIN

CITY           SKY/WX    TMP DP  RH WIND       PRES   REMARKS
MEDFORD        CLOUDY    45  29  55 SE14G22   29.92R
WAUSAU         LGT RAIN  41  36  82 E7        29.95R
MOSINEE        DRIZZLE   43  30  61 E9        29.96R
MARSHFIELD     LGT RAIN  43  31  62 SE14      29.93R
WISC RAPIDS    LGT RAIN  42  36  79 SE8       29.95S
STEVENS POINT  CLOUDY    40  25  55 E12       29.97R
WAUPACA        CLOUDY    44  26  48 SE7       29.98S
SHAWANO        CLOUDY    42  23  46 E7        29.99S
CLINTONVILLE   CLOUDY    43  21  42 SE7       29.98S
$$

WIZ038-039-048-051-250400-
FOX VALLEY

CITY           SKY/WX    TMP DP  RH WIND       PRES   REMARKS
NWS GREEN BAY  CLOUDY    42  21  43 SE5       29.99F
APPLETON       CLOUDY    39  21  48 SE7       29.99S
OSHKOSH        CLOUDY    40  33  76 SE12      29.98R
FOND DU LAC    LGT RAIN  39  33  79 SE8       29.99R
$$

WIZ022-050-052-250400-
EAST CENTRAL WISCONSIN

CITY           SKY/WX    TMP DP  RH WIND       PRES   REMARKS
STURGEON BAY   CLOUDY    37  19  48 E9        30.02S
MANITOWOC      CLOUDY    39  27  62 S5        30.01R
SHEBOYGAN      LGT RAIN  37  31  78 CALM      30.00S
$$

LMZ563-521-522-541>543-250400-
LAKESHORE

STATION/POSITION TIME  TEMP    WIND        PRES    VSBY  WAVE
                       AIR SEA DIR/SP/G                  HT/PER
                 (UTC) (F)     (DEG/KT/KT) (MB)    (MI)  (FT/S)
SHEBOYGAN LKSHOR 0300   38      50/  1/  3 1017.0R
KEWAUNEE LKSHORE 0300   39      40/  6/  9 1015.0S
NORTHPORT PIER   0300   37     100/  5/  6 1016.9R
SISTER BAY LKSHO 0200   37     130/  6/ 10   N/A
CHAMBERS ISLAND  0300   39      80/  5/  9 1016.6R
MENOMINEE LKSHOR 0300   39      60/  4/  5 1016.8S
$$



USA.gov is the U.S. government's official web portal to all federal, state and local government web resources and services.